Total_Precipitation_Accumulation
1.68 2.16 2.70 3.19 3.85 4.75 5.68 6.07 5.92 5.37 4.90 4.47 4.02 3.70 3.42 3.22 3.10 2.78 2.42 2.33 2.30 2.26 2.46 2.19 2.41 2.40 2.51 2.56 2.51 2.63 2.59 2.33 2.45 2.85 2.78 2.46 2.25 2.28 2.18 2.08 2.16 1.93 1.96
1.74 2.26 2.86 3.25 3.57 4.10 4.85 5.18 4.90 4.29 3.67 3.43 3.34 3.22 3.16 2.84 2.63 2.54 2.45 2.16 2.16 2.17 2.18 2.27 2.06 2.11 2.30 2.25 2.24 2.54 2.51 2.20 2.26 2.69 2.93 2.76 2.79 2.53 1.93 1.91 2.07 2.04 2.10
1.53 2.27 2.82 3.10 3.36 3.55 3.54 3.69 3.61 3.14 2.82 2.74 2.75 2.77 2.90 2.70 2.42 2.33 2.25 2.01 1.92 1.85 1.92 1.93 1.99 2.13 2.06 2.14 2.20 2.26 2.39 2.32 2.14 2.20 2.77 2.76 2.65 2.47 2.19 1.89 1.87 2.05 2.29
1.37 2.13 2.43 2.54 2.58 2.67 2.47 2.48 2.59 2.45 2.42 2.34 2.39 2.30 2.16 2.15 2.06 2.04 2.00 1.94 1.82 1.73 1.61 1.67 1.78 1.96 1.95 2.20 1.96 2.01 2.25 2.33 2.10 2.10 2.21 2.24 2.34 2.48 2.29 1.93 1.77 1.84 1.97
1.08 1.42 1.50 1.63 1.70 1.77 1.81 1.99 2.27 2.32 2.23 2.18 2.32 2.34 2.05 1.92 1.84 1.87 1.97 1.89 1.78 1.65 1.49 1.55 1.73 1.87 1.91 1.98 1.99 2.23 2.18 2.09 2.06 2.06 2.13 2.19 2.22 2.14 2.21 2.14 1.89 1.79 1.66
0.77 0.97 1.03 1.10 1.16 1.20 1.33 1.55 1.99 2.19 2.06 2.02 2.08 2.05 1.99 1.95 1.87 1.81 1.85 1.80 1.73 1.71 1.69 1.61 1.73 1.76 1.79 1.83 1.90 2.07 2.07 2.05 2.11 2.00 1.94 2.11 2.20 2.18 2.27 2.15 1.94 1.80 1.58
0.68 0.80 0.97 1.02 0.94 0.90 1.03 1.24 1.57 1.72 1.68 1.74 1.86 1.93 2.00 1.95 1.81 1.76 1.70 1.67 1.55 1.60 1.76 1.74 1.78 1.81 1.84 1.79 1.87 1.92 1.91 1.97 2.07 2.00 1.89 1.89 1.88 2.02 2.17 2.22 1.95 1.82 1.65
0.56 0.59 0.69 0.70 0.69 0.76 0.85 1.01 1.18 1.27 1.36 1.48 1.67 1.80 1.82 1.80 1.76 1.87 1.73 1.60 1.45 1.42 1.59 1.73 1.76 1.72 1.65 1.65 2.01 1.84 1.77 1.91 1.99 1.92 2.20 2.09 1.87 2.02 2.17 2.28 2.34 2.18 2.07
0.41 0.40 0.44 0.47 0.55 0.73 0.83 0.89 0.99 1.11 1.21 1.33 1.57 1.69 1.69 1.65 1.69 1.78 1.68 1.51 1.52 1.47 1.55 1.53 1.71 1.77 1.68 1.69 1.89 1.87 1.81 1.89 1.88 2.01 2.25 2.21 2.10 2.11 2.13 2.32 2.60 2.77 2.60
0.38 0.38 0.42 0.46 0.47 0.55 0.73 0.84 0.89 1.04 1.20 1.27 1.32 1.36 1.50 1.48 1.47 1.42 1.41 1.48 1.51 1.51 1.59 1.61 1.57 1.61 1.69 1.78 1.91 1.83 1.78 1.90 1.99 2.10 2.22 2.24 2.20 2.24 2.14 2.25 2.49 2.73 2.78
0.46 0.41 0.47 0.51 0.51 0.53 0.67 0.80 0.84 0.92 1.02 1.03 1.06 1.17 1.25 1.26 1.23 1.23 1.21 1.32 1.38 1.43 1.45 1.48 1.52 1.50 1.58 1.82 2.11 2.02 1.99 2.03 2.09 2.13 2.28 2.38 2.54 2.55 2.41 2.39 2.38 2.50 2.67
0.59 0.56 0.56 0.52 0.57 0.62 0.67 0.76 0.72 0.73 0.76 0.82 0.88 0.98 1.10 1.12 1.12 1.16 1.30 1.38 1.37 1.32 1.23 1.28 1.34 1.31 1.43 1.70 2.01 2.17 2.23 2.30 2.28 2.33 2.51 2.56 2.58 2.53 2.41 2.46 2.45 2.43 2.62
0.61 0.75 0.73 0.58 0.58 0.62 0.66 0.69 0.65 0.66 0.69 0.74 0.77 0.86 1.03 1.19 1.26 1.32 1.38 1.45 1.45 1.37 1.34 1.36 1.34 1.48 1.58 1.63 1.80 2.00 2.11 2.19 2.20 2.34 2.39 2.39 2.50 2.42 2.39 2.28 2.27 2.29 2.45
0.63 0.78 0.86 0.66 0.58 0.58 0.60 0.61 0.61 0.57 0.55 0.65 0.79 0.90 1.12 1.34 1.45 1.47 1.49 1.48 1.47 1.43 1.46 1.46 1.51 1.63 1.65 1.63 1.73 1.89 2.02 2.11 2.13 2.22 2.30 2.36 2.37 2.41 2.51 2.38 2.37 2.50 2.62
0.64 0.64 0.69 0.62 0.58 0.59 0.58 0.60 0.63 0.63 0.64 0.81 0.94 1.09 1.32 1.41 1.47 1.53 1.55 1.58 1.59 1.49 1.57 1.63 1.62 1.62 1.54 1.49 1.73 1.87 1.90 2.08 2.14 2.13 2.10 2.17 2.36 2.43 2.45 2.26 2.37 2.53 2.53
0.70 0.78 0.78 0.74 0.76 0.71 0.66 0.68 0.72 0.80 0.94 1.10 1.23 1.30 1.41 1.48 1.45 1.44 1.45 1.57 1.61 1.68 1.79 1.81 1.81 1.72 1.50 1.70 1.80 1.84 1.92 2.03 2.07 2.07 1.97 1.88 1.90 1.98 2.10 2.10 2.10 2.20 2.28
0.84 0.96 1.01 0.97 0.96 0.88 0.83 0.86 0.91 1.03 1.21 1.39 1.56 1.57 1.55 1.60 1.59 1.58 1.55 1.58 1.73 1.86 1.89 1.86 1.88 1.84 1.86 1.88 1.69 1.64 1.59 1.64 1.71 1.72 1.68 1.47 1.39 1.69 1.78 1.93 1.90 1.78 1.78
0.88 1.02 1.11 1.10 1.02 1.02 1.05 1.18 1.25 1.32 1.46 1.57 1.70 1.80 1.82 1.90 1.96 2.02 1.97 1.97 2.03 2.11 2.07 1.98 1.99 2.06 2.06 2.08 1.77 1.66 1.53 1.51 1.51 1.51 1.47 1.46 1.47 1.54 1.69 1.75 1.69 1.61 1.56
1.01 1.15 1.15 1.13 1.13 1.29 1.35 1.36 1.42 1.47 1.65 1.83 1.96 2.06 2.12 2.13 2.13 2.16 2.27 2.36 2.46 2.48 2.40 2.35 2.37 2.37 2.46 2.47 2.13 1.98 1.73 1.66 1.58 1.60 1.66 1.68 1.53 1.58 1.56 1.58 1.55 1.51 1.54
1.15 1.26 1.28 1.25 1.34 1.60 1.67 1.71 1.73 1.79 1.87 1.96 2.12 2.29 2.38 2.40 2.35 2.39 2.54 2.70 2.82 2.80 2.79 2.81 2.83 2.75 2.74 2.72 2.33 2.17 1.94 1.91 1.85 1.86 1.75 1.66 1.49 1.43 1.37 1.38 1.44 1.36 1.37
1.11 1.25 1.29 1.29 1.37 1.58 1.78 2.04 2.19 2.21 2.19 2.24 2.31 2.40 2.48 2.59 2.63 2.68 2.73 2.90 3.03 3.01 2.95 2.88 2.84 2.77 2.74 2.67 2.35 2.17 1.95 1.94 1.97 1.87 1.78 1.66 1.51 1.34 1.31 1.25 1.25 1.27 1.38
1.06 1.16 1.31 1.39 1.49 1.64 1.89 2.11 2.28 2.43 2.51 2.49 2.60 2.62 2.60 2.51 2.49 2.72 2.88 3.07 3.26 3.23 3.15 3.16 3.02 2.89 2.78 2.53 2.30 2.14 2.01 2.06 2.09 2.02 1.91 1.81 1.66 1.42 1.34 1.20 1.17 1.21 1.20
1.05 1.11 1.22 1.36 1.48 1.58 1.77 2.14 2.26 2.31 2.37 2.45 2.49 2.59 2.63 2.65 2.68 2.87 3.04 3.23 3.31 3.25 3.15 3.14 3.07 2.88 2.71 2.58 2.33 2.10 2.01 2.03 2.00 2.09 2.15 1.97 1.78 1.57 1.41 1.36 1.31 1.22 1.14
1.08 1.13 1.20 1.33 1.42 1.38 1.52 1.71 1.92 2.04 2.05 2.08 2.13 2.16 2.29 2.43 2.62 2.90 2.97 3.04 3.10 3.11 3.08 3.01 2.90 2.86 2.84 2.79 2.52 2.21 1.97 1.93 1.97 2.02 2.07 1.93 1.78 1.57 1.43 1.43 1.33 1.17 1.14
1.08 1.13 1.27 1.28 1.33 1.40 1.39 1.41 1.47 1.67 1.83 1.86 1.90 2.03 2.14 2.28 2.47 2.70 2.85 2.81 2.83 3.02 2.91 2.70 2.54 2.43 2.35 2.45 2.37 2.10 1.97 1.93 2.01 2.05 2.09 2.03 1.92 1.79 1.64 1.55 1.54 1.51 1.43
1.11 1.18 1.27 1.26 1.25 1.34 1.37 1.37 1.45 1.63 1.72 1.69 1.71 1.76 1.82 1.96 2.12 2.27 2.39 2.41 2.19 2.26 2.16 1.99 1.84 1.73 1.71 1.75 1.64 1.51 1.47 1.55 1.72 1.80 1.96 2.00 1.91 1.82 1.77 1.74 1.70 1.66 1.57